Clifton, OH

3:08 AM EST on February 08, 2016 (GMT -0500)
Springfield-Beckley Municipal

Weather History for KSGH - October, 2013

Change the Weather History Date:

Wednesday, October 16, 2013

  Actual Average (KDAY) Record (KDAY)
Temperature  
Mean Temperature 57 °F 54 °F  
Max Temperature 66 °F 64 °F 89 °F (1897)
Min Temperature 45 °F 44 °F 28 °F (1991)
Degree Days  
Heating Degree Days 8 11  
Month to date heating degree days 149  
Since 1 July heating degree days 239  
Cooling Degree Days 0 0  
Month to date cooling degree days 10  
Year to date cooling degree days 891  
Growing Degree Days 7 (Base 50)    
Moisture  
Dew Point 59 °F    
Average Humidity 93    
Maximum Humidity 100    
Minimum Humidity 58    
Precipitation  
Precipitation 0.16 in 0.09 in 1.13 in (1928)
Month to date precipitation 1.55  
Year to date precipitation 33.16  
Snow  
Snow 0.00 in 0.00 in - ()
Month to date snowfall 0.0  
Since 1 July snowfall 0.0  
Since 1 September snowfall 0.0  
Snow Depth -    
Sea Level Pressure  
Sea Level Pressure 29.93 in    
Wind  
Wind Speed 6 mph (SSW)    
Max Wind Speed 10 mph    
Max Gust Speed -    
Visibility 5 miles    
Events Rain    
T = Trace of Precipitation, MM = Missing Value Source: NWS Daily Summary

Daily Weather History Graph

Daily Weather History Graph

Search for Another Location

Airport or City:

Trip Planner

Search our weather history database for the weather conditions in past years. The results will help you decide how hot, cold, wet, or windy it might be!

Date:

Astronomy

Oct. 16, 2013 Rise Set
Actual Time 7:46 AM EDT 6:54 PM EDT
Civil Twilight 7:19 AM EDT 7:21 PM EDT
Nautical Twilight 6:48 AM EDT 7:52 PM EDT
Astronomical Twilight 6:17 AM EDT 8:23 PM EDT
Moon 5:33 PM EDT (10/16) 5:13 AM EDT (10/16)
Length of Visible Light 12h 01m
Length of Day
11h 07m
Waxing Gibbous, 94% of the Moon is Illuminated
Oct 16
Waxing Gibbous
Oct 18
Full
Oct 26
Last Quarter
Nov 3
New
Nov 10
First Quarter

Hourly Weather History & Observations

Time (EDT) Temp. Windchill Dew Point Humidity Pressure Visibility Wind Dir Wind Speed Gust Speed Precip Events Conditions
12:07 AM 64.4 °F - 62.6 °F 94% 29.98 in 8.0 mi SSW 6.9 mph - N/A   Overcast
12:36 AM 64.4 °F - 62.6 °F 94% 29.98 in 8.0 mi SSW 6.9 mph - N/A   Mostly Cloudy
12:56 AM 64.9 °F - 61.9 °F 90% 29.96 in 8.0 mi SSW 6.9 mph - N/A   Mostly Cloudy
1:13 AM 64.4 °F - 62.6 °F 94% 29.97 in 8.0 mi SSW 6.9 mph - N/A   Mostly Cloudy
1:56 AM 63.0 °F - 61.9 °F 96% 29.95 in 4.0 mi SSW 3.5 mph - 0.00 in Rain Light Rain
2:26 AM 62.6 °F - 62.6 °F 100% 29.96 in 7.0 mi South 4.6 mph - 0.00 in Rain Light Rain
2:56 AM 61.9 °F - 61.9 °F 100% 29.94 in 7.0 mi South 4.6 mph - 0.00 in   Mostly Cloudy
3:56 AM 61.9 °F - 61.0 °F 97% 29.91 in 8.0 mi Calm Calm - N/A   Mostly Cloudy
4:56 AM 63.0 °F - 61.0 °F 93% 29.90 in 8.0 mi South 4.6 mph - N/A   Mostly Cloudy
5:56 AM 63.0 °F - 61.9 °F 96% 29.90 in 5.0 mi South 5.8 mph - 0.00 in Rain Light Rain
6:15 AM 62.6 °F - 62.6 °F 100% 29.92 in 2.0 mi SSW 5.8 mph - 0.03 in Rain Rain
6:30 AM 62.6 °F - 62.6 °F 100% 29.92 in 3.0 mi SSW 6.9 mph - 0.04 in Rain Light Rain
6:39 AM 62.6 °F - 62.6 °F 100% 29.92 in 2.0 mi SSW 6.9 mph - 0.05 in Rain Light Rain
6:44 AM 62.6 °F - 62.6 °F 100% 29.92 in 1.2 mi South 6.9 mph - 0.09 in Rain Rain
6:56 AM 61.9 °F - 61.9 °F 100% 29.91 in 1.8 mi SSW 6.9 mph - 0.14 in Rain Light Rain
6:59 AM 62.6 °F - 62.6 °F 100% 29.92 in 3.0 mi SSW 6.9 mph - 0.00 in Rain Light Rain
7:23 AM 62.6 °F - 62.6 °F 100% 29.93 in 2.0 mi SSW 6.9 mph - 0.01 in Rain Light Rain
7:38 AM 62.6 °F - 62.6 °F 100% 29.92 in 4.0 mi SSW 6.9 mph - 0.01 in Rain Light Rain
7:56 AM 61.9 °F - 61.9 °F 100% 29.91 in 4.0 mi South 5.8 mph - 0.01 in   Overcast
8:10 AM 62.6 °F - 62.6 °F 100% 29.93 in 5.0 mi SSW 8.1 mph - N/A   Overcast
8:56 AM 61.9 °F - 61.9 °F 100% 29.92 in 2.5 mi SSW 6.9 mph - N/A   Overcast
9:30 AM 62.6 °F - 62.6 °F 100% 29.93 in 3.0 mi SSW 6.9 mph - N/A   Overcast
9:39 AM 62.6 °F - 62.6 °F 100% 29.93 in 2.0 mi SSW 5.8 mph - N/A   Overcast
9:56 AM 63.0 °F - 63.0 °F 100% 29.92 in 3.0 mi SSW 5.8 mph - N/A   Overcast
10:10 AM 62.6 °F - 62.6 °F 100% 29.93 in 2.5 mi SSW 5.8 mph - N/A   Overcast
10:45 AM 62.6 °F - 62.6 °F 100% 29.93 in 1.5 mi SSW 9.2 mph - N/A   Overcast
10:56 AM 63.0 °F - 63.0 °F 100% 29.92 in 1.5 mi SSW 6.9 mph - N/A   Overcast
11:07 AM 62.6 °F - 62.6 °F 100% 29.93 in 1.2 mi SSW 6.9 mph - N/A   Overcast
11:23 AM 62.6 °F - 62.6 °F 100% 29.93 in 1.8 mi SSW 6.9 mph - N/A   Overcast
11:56 AM 59.9 °F - 59.9 °F 100% 29.93 in 1.5 mi West 9.2 mph - 0.00 in Rain Light Rain
12:15 PM 59.0 °F - 57.2 °F 94% 29.94 in 1.8 mi Variable 6.9 mph - 0.00 in Rain Light Rain
12:28 PM 57.2 °F - 57.2 °F 100% 29.94 in 2.0 mi WSW 8.1 mph - 0.00 in   Overcast
12:42 PM 57.2 °F - 57.2 °F 100% 29.94 in 1.5 mi SSW 4.6 mph - 0.00 in Rain Light Rain
12:48 PM 57.2 °F - 57.2 °F 100% 29.94 in 1.2 mi SSW 4.6 mph - 0.00 in Rain Light Rain
12:56 PM 59.0 °F - 57.9 °F 96% 29.93 in 1.0 mi SSW 4.6 mph - 0.00 in Rain Light Rain
1:02 PM 59.0 °F - 59.0 °F 100% 29.94 in 1.5 mi SSW 4.6 mph - 0.01 in Rain Light Rain
1:23 PM 60.8 °F - 60.8 °F 100% 29.93 in 2.5 mi SW 6.9 mph - 0.01 in   Overcast
1:30 PM 60.8 °F - 60.8 °F 100% 29.93 in 4.0 mi SW 6.9 mph - 0.01 in   Overcast
1:38 PM 60.8 °F - 60.8 °F 100% 29.92 in 4.0 mi SW 10.4 mph - 0.01 in   Overcast
1:56 PM 61.9 °F - 59.0 °F 90% 29.91 in 6.0 mi SW 8.1 mph - 0.01 in   Overcast
2:17 PM 62.6 °F - 59.0 °F 88% 29.91 in 6.0 mi SW 10.4 mph - N/A   Mostly Cloudy
2:56 PM 66.9 °F - 57.9 °F 73% 29.89 in 7.0 mi SW 6.9 mph - N/A   Partly Cloudy
3:56 PM 65.8 °F - 54.9 °F 68% 29.91 in 8.0 mi SSW 5.8 mph - N/A   Mostly Cloudy
4:56 PM 65.8 °F - 52.0 °F 61% 29.90 in 8.0 mi SW 10.4 mph - N/A   Partly Cloudy
5:56 PM 64.9 °F - 50.0 °F 58% 29.91 in 9.0 mi WSW 9.2 mph - N/A   Mostly Cloudy
6:56 PM 59.9 °F - 47.8 °F 64% 29.92 in 9.0 mi SSW 6.9 mph - N/A   Scattered Clouds
7:56 PM 55.9 °F - 46.9 °F 72% 29.94 in 10.0 mi SSW 6.9 mph - N/A   Scattered Clouds
8:56 PM 54.0 °F - 45.0 °F 72% 29.95 in 10.0 mi SW 6.9 mph - N/A   Clear
9:56 PM 50.0 °F - 45.9 °F 86% 29.97 in 10.0 mi South 4.6 mph - N/A   Clear
10:56 PM 48.9 °F - 45.9 °F 89% 29.99 in 9.0 mi SW 6.9 mph - N/A   Clear
11:56 PM 45.9 °F 42.9 °F 43.9 °F 93% 29.98 in 8.0 mi SW 5.8 mph - N/A   Clear